Location: Songkhla
(7.2000°N, 100.6000°E)
Time: 04:20:31
(UTC+07:00)

ISS - Visible Passes

Search period start: 18 August 2017 00:00
Search period end: 28 August 2017 00:00
Orbit: 401 x 408 km, 51.6° (Epoch: 18 August)

Date Brightness Start Highest point End Pass type
(mag) Time Alt. Az. Time Alt. Az. Time Alt. Az.
18 Aug -1.6 18:59:43 10° NNE 19:01:14 13° NE 19:02:46 10° E visible
18 Aug -0.5 20:35:09 10° WNW 20:35:37 12° W 20:35:37 12° W visible
19 Aug -3.3 19:42:10 10° NW 19:45:21 54° SW 19:46:12 39° S visible
20 Aug -3.4 18:49:59 10° NNW 18:53:06 46° NE 18:56:14 10° SE visible
21 Aug -1.0 19:35:20 10° W 19:37:05 14° SW 19:38:52 10° SSW visible
26 Aug -2.3 05:18:16 10° SSW 05:21:17 35° SE 05:24:19 10° ENE visible
27 Aug -1.0 04:28:29 13° SE 04:29:00 14° SE 04:30:42 10° E visible
